CW9723 Weather Reports


time (UTC)temp
C
wind
direction
speed
KPH
gust
KPH
rain 1hr
cm
rain 24hr
cm
rain mn
cm
humidity
%
barometer
mb
20260505041510 18 251 3.2 8.0 0.00 0.00 0.00 53 1003.2
20260505041235 18 256 3.2 11.3 0.00 0.00 0.00 52 1003.2
20260505040507 18 255 4.8 12.9 0.00 0.00 0.00 51 1003.2
20260505040011 18 247 4.8 12.9 0.00 0.00 0.00 50 1003.1
20260505040006 18 248 4.8 12.9 0.00 0.00 0.00 50 1003.1
20260505035230 18 171 6.4 12.9 0.00 0.00 0.00 49 1003.0
20260505034733 18 227 6.4 12.9 0.00 0.00 0.00 49 1002.9
20260505034007 18 193 4.8 9.7 0.00 0.00 0.00 50 1002.8
20260505033507 18 235 4.8 14.5 0.00 0.00 0.00 49 1002.9
20260505033228 18 160 4.8 14.5 0.00 0.00 0.00 47 1002.8
20260505032507 18 213 4.8 11.3 0.00 0.00 0.00 47 1002.9
20260505032006 18 168 4.8 12.9 0.00 0.00 0.00 46 1002.9
20260505031507 18 254 4.8 12.9 0.00 0.00 0.00 46 1002.9
20260505031005 18 211 4.8 11.3 0.00 0.00 0.00 46 1002.9
20260505030506 18 190 4.8 9.7 0.00 0.00 0.00 45 1002.8
20260505030002 18 192 4.8 11.3 0.00 0.00 0.00 45 1002.9
20260505025502 18 223 4.8 11.3 0.00 0.00 0.00 45 1002.8
20260505025001 18 191 4.8 11.3 0.00 0.00 0.00 45 1002.9
20260505024503 18 222 4.8 11.3 0.00 0.00 0.00 44 1002.9
20260505024001 18 229 4.8 9.7 0.00 0.00 0.00 44 1002.9
20260505023516 19 228 4.8 11.3 0.00 0.00 0.00 43 1002.9
20260505023001 19 222 4.8 11.3 0.00 0.00 0.00 42 1003.0
20260505022503 19 231 4.8 14.5 0.00 0.00 0.00 41 1003.0
20260505022001 19 201 4.8 14.5 0.00 0.00 0.00 42 1003.1
20260505021712 19 193 4.8 12.9 0.00 0.00 0.00 40 1003.1
20260505021605 19 261 4.8 12.9 0.00 0.00 0.00 41 1003.1
20260505020506 19 200 4.8 11.3 0.00 0.00 0.00 40 1002.9
20260505020001 20 190 4.8 11.3 0.00 0.00 0.00 40 1002.9
20260505015504 20 217 4.8 12.9 0.00 0.00 0.00 41 1002.9
20260505015000 20 216 4.8 12.9 0.00 0.00 0.00 40 1002.9
20260505014735 20 184 4.8 14.5 0.00 0.00 0.00 40 1002.8
20260505013959 20 222 4.8 14.5 0.00 0.00 0.00 39 1002.7
20260505013506 20 191 3.2 8.0 0.00 0.00 0.00 40 1002.6
20260505013002 20 225 3.2 8.0 0.00 0.00 0.00 41 1002.7
20260505012513 20 196 4.8 9.7 0.00 0.00 0.00 40 1002.6
20260505011959 20 227 4.8 9.7 0.00 0.00 0.00 42 1002.6
20260505011505 20 241 3.2 8.0 0.00 0.00 0.00 42 1002.6
20260505011001 20 204 3.2 6.4 0.00 0.00 0.00 41 1002.6
20260505010512 20 184 3.2 6.4 0.00 0.00 0.00 42 1002.5
20260505005959 20 200 3.2 6.4 0.00 0.00 0.00 43 1002.5
20260505005501 20 200 3.2 6.4 0.00 0.00 0.00 41 1002.5
20260505004958 20 216 3.2 6.4 0.00 0.00 0.00 41 1002.5
20260505004505 20 291 3.2 6.4 0.00 0.00 0.00 42 1002.5
20260505003958 20 221 3.2 6.4 0.00 0.00 0.00 43 1002.5
20260505003501 20 180 1.6 3.2 0.00 0.00 0.00 43 1002.4
20260505002957 20 197 1.6 3.2 0.00 0.00 0.00 43 1002.5
20260505002501 20 177 1.6 4.8 0.00 0.00 0.00 43 1002.4
20260505002217 20 174 1.6 4.8 0.00 0.00 0.00 43 1002.4
20260505001505 20 0 1.6 3.2 0.00 0.00 0.00 42 1002.4
20260505000958 20 199 1.6 3.2 0.00 0.03 0.00 42 1002.4
20260505000505 20 190 0.0 3.2 0.00 0.03 0.00 42 1002.3
20260504235958 21 0 0.0 1.6 0.00 0.03 0.00 42 1002.3
20260504235503 21 0 0.0 3.2 0.00 0.05 0.00 40 1002.2
20260504234958 21 0 1.6 3.2 0.00 0.05 0.00 41 1002.3
20260504234458 22 157 1.6 6.4 0.00 0.05 0.00 38 1002.3
20260504233955 22 164 1.6 6.4 0.00 0.05 0.00 38 1002.3
20260504233453 22 148 1.6 3.2 0.00 0.05 0.00 36 1002.3
20260504232951 22 223 1.6 4.8 0.00 0.05 0.00 34 1002.2
20260504232710 23 0 3.2 6.4 0.00 0.05 0.00 34 1002.1
20260504232207 23 104 3.2 9.7 0.00 0.05 0.00 33 1002.1
20260504232048 23 202 3.2 6.4 0.00 0.05 0.00 33 1002.1
20260504230950 23 196 3.2 9.7 0.00 0.05 0.00 31 1002.1
20260504230454 23 172 3.2 9.7 0.00 0.05 0.00 32 1002.1
20260504225951 23 215 4.8 9.7 0.00 0.05 0.00 32 1002.1
20260504225714 23 150 4.8 12.9 0.00 0.05 0.00 31 1002.0
20260504225442 23 228 4.8 12.9 0.00 0.05 0.00 31 1002.1
20260504224448 23 160 3.2 8.0 0.00 0.05 0.00 31 1002.1
20260504223942 23 352 4.8 9.7 0.00 0.05 0.00 31 1002.1
20260504223704 23 210 4.8 9.7 0.00 0.05 0.00 30 1002.2
20260504222942 23 60 6.4 12.9 0.00 0.05 0.00 30 1002.3
20260504222443 23 146 6.4 16.1 0.00 0.05 0.00 29 1002.2
20260504222215 24 196 4.8 16.1 0.00 0.05 0.00 30 1002.2
20260504221704 24 237 3.2 14.5 0.00 0.05 0.00 30 1002.3
20260504220940 23 147 6.4 14.5 0.00 0.05 0.00 30 1002.4
20260504220702 23 250 6.4 14.5 0.00 0.05 0.00 30 1002.4
20260504220203 24 144 6.4 17.7 0.00 0.05 0.00 30 1002.4
20260504215434 24 299 4.8 17.7 0.00 0.05 0.00 30 1002.4
20260504214934 24 173 6.4 16.1 0.00 0.05 0.00 30 1002.4
20260504214434 23 344 8.0 25.7 0.00 0.05 0.00 30 1002.5
20260504213933 23 253 8.0 25.7 0.00 0.05 0.00 30 1002.5
20260504213437 23 251 6.4 14.5 0.00 0.05 0.00 30 1002.5
20260504212934 23 304 8.0 19.3 0.00 0.05 0.00 31 1002.5
20260504212441 23 303 6.4 19.3 0.00 0.05 0.00 30 1002.5
20260504211948 23 281 6.4 19.3 0.00 0.05 0.00 33 1002.5
20260504211924 23 239 6.4 19.3 0.00 0.05 0.00 32 1002.5
20260504210934 23 236 8.0 20.9 0.00 0.05 0.00 32 1002.6
20260504210436 23 274 8.0 20.9 0.00 0.05 0.00 32 1002.7
20260504210424 23 200 8.0 17.7 0.00 0.05 0.00 33 1002.7
20260504205436 23 279 8.0 17.7 0.00 0.05 0.00 34 1002.7
20260504204932 23 274 8.0 20.9 0.00 0.05 0.00 34 1002.8
20260504204654 24 278 6.4 20.9 0.00 0.05 0.00 33 1002.8
20260504203931 24 238 6.4 12.9 0.00 0.05 0.00 34 1002.9
20260504203432 23 192 8.0 16.1 0.00 0.05 0.00 34 1002.9
20260504203158 23 275 8.0 16.1 0.00 0.05 0.00 35 1003.0
20260504202433 23 235 6.4 14.5 0.00 0.05 0.00 34 1003.0
20260504202153 23 277 6.4 19.3 0.00 0.05 0.00 34 1003.0
20260504201700 23 328 8.0 19.3 0.00 0.05 0.00 35 1003.1
20260504200931 23 284 9.7 20.9 0.00 0.05 0.00 35 1003.1
20260504200433 23 272 6.4 20.9 0.00 0.05 0.00 36 1003.2
20260504195931 23 276 6.4 14.5 0.00 0.05 0.00 35 1003.3
20260504195434 23 250 6.4 16.1 0.00 0.05 0.00 37 1003.4
20260504194931 23 286 9.7 17.7 0.00 0.05 0.00 37 1003.4
20260504194656 23 286 8.0 17.7 0.00 0.05 0.00 36 1003.5
20260504193930 23 253 8.0 19.3 0.00 0.05 0.00 37 1003.7
20260504193431 23 220 6.4 19.3 0.00 0.05 0.00 38 1003.7
20260504192930 23 291 9.7 22.5 0.00 0.05 0.00 36 1003.7
20260504192440 22 352 11.3 22.5 0.00 0.05 0.00 38 1003.8
20260504191931 22 299 11.3 19.3 0.00 0.05 0.00 37 1003.7
20260504191432 22 41 9.7 19.3 0.00 0.05 0.00 38 1003.7
20260504190932 22 251 8.0 19.3 0.00 0.05 0.00 39 1004.0
20260504190433 22 179 9.7 22.5 0.00 0.05 0.00 39 1004.1
20260504185931 22 294 11.3 22.5 0.00 0.05 0.00 38 1004.1
20260504185700 22 192 9.7 20.9 0.00 0.05 0.00 40 1004.3
20260504184931 22 260 8.0 20.9 0.00 0.05 0.00 40 1004.3
20260504184430 22 260 9.7 20.9 0.00 0.05 0.00 40 1004.4
20260504183927 22 277 11.3 22.5 0.00 0.05 0.00 40 1004.3
20260504183428 22 249 9.7 22.5 0.00 0.05 0.00 40 1004.4
20260504182927 22 267 8.0 22.5 0.00 0.05 0.00 41 1004.5
20260504182428 22 244 8.0 22.5 0.00 0.05 0.00 42 1004.5
20260504181925 21 235 9.7 24.1 0.00 0.05 0.00 42 1004.6
20260504181428 21 214 9.7 24.1 0.00 0.05 0.00 42 1004.6
20260504180925 21 224 8.0 17.7 0.00 0.05 0.00 43 1004.6
20260504180427 21 305 9.7 24.1 0.00 0.05 0.00 43 1004.6
20260504175926 21 175 11.3 24.1 0.00 0.05 0.00 44 1004.7
20260504175427 21 230 11.3 22.5 0.00 0.05 0.00 43 1004.7
20260504174929 21 249 9.7 22.5 0.00 0.05 0.00 44 1004.8
20260504174921 21 277 9.7 20.9 0.00 0.05 0.00 44 1004.9
20260504173922 20 221 11.3 20.9 0.00 0.05 0.00 46 1004.8
20260504173702 20 251 11.3 22.5 0.00 0.05 0.00 45 1004.8
20260504172922 21 204 11.3 22.5 0.00 0.05 0.00 45 1004.9
20260504172423 21 244 9.7 20.9 0.00 0.05 0.00 45 1004.8
20260504171922 21 267 8.0 19.3 0.00 0.05 0.00 46 1004.8
20260504171425 20 206 9.7 20.9 0.00 0.05 0.00 46 1005.0
20260504170923 20 202 9.7 20.9 0.00 0.05 0.00 48 1005.0
20260504170423 20 255 9.7 22.5 0.00 0.05 0.00 48 1005.1
20260504160420 18 231 8.0 19.3 0.00 0.05 0.00 48 1005.5
20260504150912 17 192 6.4 16.1 0.00 0.05 0.00 51 1006.1
20260504150412 17 210 8.0 19.3 0.00 0.05 0.00 50 1006.2
20260504150145 17 204 8.0 19.3 0.00 0.05 0.00 50 1006.1
20260504141110 15 289 8.0 19.3 0.00 0.05 0.00 53 1006.5
20260504140349 14 209 9.7 19.3 0.00 0.05 0.00 55 1006.5
20260504130345 13 73 6.4 17.7 0.00 0.05 0.00 57 1007.0
20260504110337 10 210 4.8 11.3 0.00 0.05 0.00 66 1007.3
20260504100333 10 186 6.4 11.3 0.00 0.05 0.00 64 1007.0
20260504081829 10 184 3.2 9.7 0.00 0.05 0.00 66 1007.6
20260504081330 10 200 3.2 8.0 0.00 0.05 0.00 66 1007.6
20260504080830 10 202 3.2 8.0 0.00 0.05 0.00 65 1007.7
20260504080330 9 177 3.2 8.0 0.00 0.05 0.00 66 1007.7
20260504050328 11 209 3.2 9.7 0.00 0.05 0.00 57 1008.4
20260504050317 11 237 4.8 11.3 0.00 0.05 0.00 56 1008.4
20260504045317 11 243 1.6 4.8 0.00 0.05 0.00 58 1008.4
20260504044815 11 255 3.2 4.8 0.00 0.05 0.00 58 1008.4
20260504044314 11 208 3.2 4.8 0.00 0.05 0.00 58 1008.4
20260504043814 11 200 3.2 8.0 0.00 0.05 0.00 58 1008.4
20260504043538 11 196 3.2 8.0 0.00 0.05 0.00 59 1008.4
20260504042814 11 0 1.6 4.8 0.00 0.05 0.00 60 1008.5
20260504042534 11 216 1.6 4.8 0.00 0.05 0.00 60 1008.5
20260504041815 11 199 3.2 6.4 0.00 0.05 0.00 59 1008.5